P/2011 UA134 ( Spacewatch-PanSTARRS )

Japanese version
Home page
Updated on February 1, 2012

---------------------------------------------------------------------

* Profile

Discovery Date October 24 and 25, 2011
Magnitude 20.4 mag, 21.4 mag
Discoverer Spacewatch project, Pan-STARRS 1 telescope (Haleakala)

* Pictures

* Orbital Elements

Epoch 2011 Dec. 25.0 TT = JDT 2455920.5
T 2011 Dec. 7.19837 TT                                  MPC
q   2.0514143            (2000.0)            P               Q
n   0.07471464     Peri.   32.32569     +0.29887998     -0.94682782
a   5.5829736      Node    40.63631     +0.83203151     +0.19742621
e   0.6325588      Incl.   10.53855     +0.46732678     +0.25404718
P  13.2
From 119 observations 2011 Oct. 24-2012 Jan. 26, mean residual 0".5.

* Magnitudes Graph

        m1 = -139 + 5 log d + 500 log r(t + 8)

---------------------------------------------------------------------

The orbital elements are published on M.P.E.C. 2012-B78.
The magnitudes graphs are made with Comet for Windows.

---------------------------------------------------------------------

Copyright(C) Seiichi Yoshida (comet@aerith.net). All rights reserved.